SCP
0 0 0 0 0 0 0 0 0 0 0 0 0 0 0 0 0 0 0 0 0 0
0 0 0 0 0 0 0 0 0 0 0 0 0 0 0 0 0 0 0 0 0 0
0 0 0 0 0 0 0 0 0 0 0 0 0 0 0 0 0 0 0 0 0 0
0 0 0 0 0 0 0 0 0 0 0 0 0 0 0 0 0 0 0 0 0 0
0 0 0 0 0 0 0 0 0 0 0 0 0 0 0 0 0 0 0 0 0 0
0 0 0 0 0 0 0 0 0 0 0 0 0 0 0 0 0 0 0 0 0 0
0 0 0 0 0 0 0 0 0 0 0 0 0 0 0 0 0 0 0 0 0 0
-0 -0 -0 -0 0 0 0 0 0 0 0 0 0 0 0 0 0 0 0 0 0 0
-0 -0 -0 -0 -0 0 0 0 0 0 0 0 0 0 0 0 0 0 0 0 0 0
-0 -0 0 0 0 0 0 0 0 0 0 0 0 0 0 0 0 0 0 0 0 0
0 0 0 0 0 0 0 0 0 0 0 0 0 0 0 0 0 0 0 0 0 0
0 0 0 0 0 0 0 0 0 0 0 0 0 0 0 0 0 0 0 0 0 0
0 -0 0 0 0 0 0 0 0 0 0 0 0 0 0 0 0 0 0 0 0 0
0 0 0 0 0 0 0 0 0 0 0 0 0 0 0 0 0 0 0 0 0 0
Wind_Speed_500mb
78 81 86 89 93 95 96 96 94 92 90 89 90 88 86 85 84 83 82 79 77 74
78 83 88 93 99 103 105 106 107 105 101 96 97 96 95 96 95 92 90 88 85 83
81 82 88 92 99 102 101 106 110 113 109 106 104 103 101 103 103 103 101 98 95 91
72 73 77 86 88 94 98 98 104 104 108 106 107 106 109 110 110 113 111 109 107 104
50 55 63 69 73 75 82 85 93 98 100 103 104 106 109 115 118 121 122 121 117 116
55 61 66 70 72 74 77 82 81 85 96 97 101 103 104 108 115 122 126 126 126 126
49 58 74 81 83 74 70 76 80 84 87 92 93 103 105 108 109 112 119 126 129 130
61 66 71 74 77 79 75 80 80 77 78 85 93 97 105 108 113 115 114 117 121 128
89 89 94 88 86 83 89 89 87 86 81 80 82 81 88 103 110 117 117 118 121 119
103 98 93 91 87 91 90 89 94 99 101 104 103 99 93 90 88 101 113 120 114 112
93 95 101 104 92 88 87 88 93 95 95 104 108 105 105 101 102 105 103 111 117 111
95 101 100 95 90 92 95 90 90 90 91 94 102 103 103 101 99 109 106 110 115 118
99 94 93 88 96 96 92 91 90 92 89 90 95 101 98 95 89 103 111 104 113 104
101 97 99 100 93 88 85 89 87 92 92 88 90 94 88 84 81 93 92 101 102 98
Wind_Direction_500mb
279 275 275 273 271 268 266 267 265 262 259 259 257 253 250 248 247 247 246 246 245 245
289 287 287 286 281 277 275 274 271 268 265 262 260 258 254 251 250 248 248 248 248 247
295 296 296 291 287 287 286 281 277 275 272 269 264 260 257 255 253 251 250 249 248 248
305 305 302 297 296 294 291 287 283 281 278 275 270 265 261 258 257 254 253 251 250 250
320 314 308 305 304 302 296 294 288 283 281 279 277 273 267 262 259 257 255 252 251 251
325 322 318 315 311 306 301 296 293 288 280 279 277 276 274 272 267 262 260 257 254 253
326 328 327 318 311 308 305 300 297 293 288 282 280 276 274 272 271 270 266 263 259 257
308 311 312 307 304 305 304 302 300 293 291 287 280 279 273 271 270 269 269 267 264 260
303 302 304 298 298 293 290 290 287 283 286 288 286 285 278 270 268 266 266 266 265 264
299 297 297 292 287 288 284 287 290 282 278 278 279 279 278 275 266 261 263 262 265 264
306 307 305 300 299 299 292 285 286 287 283 280 276 275 277 275 268 260 259 257 260 260
309 306 309 305 306 305 305 303 297 288 285 282 278 276 276 274 260 257 261 258 257 256
316 316 315 312 309 308 305 305 300 298 290 285 282 279 278 274 263 250 258 262 256 246
315 311 309 308 307 310 302 302 304 302 297 292 288 284 280 277 260 253 256 258 249 239
Wind_Speed_850mb
78 81 86 89 93 95 96 96 94 92 90 89 90 88 86 85 84 83 82 79 77 74
78 83 88 93 99 103 105 106 107 105 101 96 97 96 95 96 95 92 90 88 85 83
81 82 88 92 99 102 101 106 110 113 109 106 104 103 101 103 103 103 101 98 95 91
72 73 77 86 88 94 98 98 104 104 108 106 107 106 109 110 110 113 111 109 107 104
50 55 63 69 73 75 82 85 93 98 100 103 104 106 109 115 118 121 122 121 117 116
55 61 66 70 72 74 77 82 81 85 96 97 101 103 104 108 115 122 126 126 126 126
49 58 74 81 83 74 70 76 80 84 87 92 93 103 105 108 109 112 119 126 129 130
61 66 71 74 77 79 75 80 80 77 78 85 93 97 105 108 113 115 114 117 121 128
89 89 94 88 86 83 89 89 87 86 81 80 82 81 88 103 110 117 117 118 121 119
103 98 93 91 87 91 90 89 94 99 101 104 103 99 93 90 88 101 113 120 114 112
93 95 101 104 92 88 87 88 93 95 95 104 108 105 105 101 102 105 103 111 117 111
95 101 100 95 90 92 95 90 90 90 91 94 102 103 103 101 99 109 106 110 115 118
99 94 93 88 96 96 92 91 90 92 89 90 95 101 98 95 89 103 111 104 113 104
101 97 99 100 93 88 85 89 87 92 92 88 90 94 88 84 81 93 92 101 102 98
Wind_Direction_850mb
279 275 275 273 271 268 266 267 265 262 259 259 257 253 250 248 247 247 246 246 245 245
289 287 287 286 281 277 275 274 271 268 265 262 260 258 254 251 250 248 248 248 248 247
295 296 296 291 287 287 286 281 277 275 272 269 264 260 257 255 253 251 250 249 248 248
305 305 302 297 296 294 291 287 283 281 278 275 270 265 261 258 257 254 253 251 250 250
320 314 308 305 304 302 296 294 288 283 281 279 277 273 267 262 259 257 255 252 251 251
325 322 318 315 311 306 301 296 293 288 280 279 277 276 274 272 267 262 260 257 254 253
326 328 327 318 311 308 305 300 297 293 288 282 280 276 274 272 271 270 266 263 259 257
308 311 312 307 304 305 304 302 300 293 291 287 280 279 273 271 270 269 269 267 264 260
303 302 304 298 298 293 290 290 287 283 286 288 286 285 278 270 268 266 266 266 265 264
299 297 297 292 287 288 284 287 290 282 278 278 279 279 278 275 266 261 263 262 265 264
306 307 305 300 299 299 292 285 286 287 283 280 276 275 277 275 268 260 259 257 260 260
309 306 309 305 306 305 305 303 297 288 285 282 278 276 276 274 260 257 261 258 257 256
316 316 315 312 309 308 305 305 300 298 290 285 282 279 278 274 263 250 258 262 256 246
315 311 309 308 307 310 302 302 304 302 297 292 288 284 280 277 260 253 256 258 249 239